| time (UTC) | temp C | wind direction | speed KPH | gust KPH | rain 1hr cm | rain 24hr cm | rain mn cm | humidity % | barometer mb |
| 20260504201536 | 14 | 332 | 20.9 | 30.6 | 0.00 | 0.53 | 0.53 | 82 | 1012.8 |
| 20260504200036 | 15 | 307 | 16.1 | 27.4 | 0.00 | 0.53 | 0.53 | 85 | 1012.5 |
| 20260504194542 | 15 | 290 | 11.3 | 27.4 | 0.00 | 0.53 | 0.53 | 85 | 1012.4 |
| 20260504193040 | 15 | 319 | 14.5 | 25.7 | 0.00 | 0.53 | 0.53 | 84 | 1012.3 |
| 20260504191539 | 15 | 337 | 11.3 | 24.1 | 0.00 | 0.53 | 0.53 | 84 | 1012.2 |
| 20260504190037 | 15 | 313 | 16.1 | 24.1 | 0.00 | 0.53 | 0.53 | 84 | 1012.1 |
| 20260504184536 | 15 | 303 | 11.3 | 24.1 | 0.00 | 0.53 | 0.53 | 84 | 1012.0 |
| 20260504183041 | 15 | 305 | 16.1 | 25.7 | 0.00 | 0.53 | 0.53 | 83 | 1011.9 |
| 20260504181538 | 15 | 293 | 12.9 | 25.7 | 0.00 | 0.53 | 0.53 | 84 | 1012.0 |
| 20260504180039 | 15 | 293 | 12.9 | 22.5 | 0.00 | 0.53 | 0.53 | 83 | 1011.9 |
| 20260504174538 | 15 | 302 | 14.5 | 24.1 | 0.00 | 0.53 | 0.53 | 84 | 1011.8 |
| 20260504173051 | 15 | 302 | 16.1 | 22.5 | 0.00 | 0.53 | 0.53 | 82 | 1011.8 |
| 20260504171542 | 15 | 324 | 12.9 | 20.9 | 0.00 | 0.53 | 0.53 | 80 | 1011.8 |
| 20260504081541 | 12 | 45 | 4.8 | 11.3 | 0.20 | 0.41 | 0.36 | 95 | 1012.3 |
| 20260504044536 | 13 | 23 | 4.8 | 11.3 | 0.00 | 0.08 | 0.00 | 90 | 1011.2 |
| 20260504043035 | 13 | 24 | 9.7 | 16.1 | 0.00 | 0.08 | 0.00 | 90 | 1011.2 |
| 20260504041544 | 13 | 355 | 9.7 | 16.1 | 0.00 | 0.08 | 0.00 | 90 | 1011.3 |
| 20260504040042 | 13 | 19 | 3.2 | 11.3 | 0.00 | 0.08 | 0.00 | 91 | 1011.5 |
| 20260504034545 | 13 | 19 | 6.4 | 11.3 | 0.00 | 0.08 | 0.00 | 91 | 1011.4 |
| 20260504033036 | 13 | 297 | 0.0 | 4.8 | 0.00 | 0.08 | 0.00 | 92 | 1011.8 |
| 20260504031536 | 12 | 15 | 0.0 | 4.8 | 0.00 | 0.08 | 0.00 | 91 | 1011.6 |
| 20260504030037 | 13 | 0 | 0.0 | 6.4 | 0.00 | 0.08 | 0.00 | 91 | 1011.6 |
| 20260504024542 | 13 | 26 | 0.0 | 4.8 | 0.00 | 0.08 | 0.00 | 91 | 1011.6 |
| 20260504023039 | 13 | 66 | 3.2 | 8.0 | 0.00 | 0.08 | 0.00 | 92 | 1011.6 |
| 20260504021540 | 13 | 68 | 0.0 | 4.8 | 0.00 | 0.08 | 0.00 | 92 | 1011.7 |
| 20260504020041 | 13 | 44 | 1.6 | 6.4 | 0.00 | 0.08 | 0.00 | 93 | 1011.6 |
| 20260504014538 | 13 | 0 | 0.0 | 6.4 | 0.00 | 0.08 | 0.00 | 93 | 1011.8 |
| 20260504013055 | 12 | 35 | 0.0 | 3.2 | 0.00 | 0.08 | 0.00 | 93 | 1011.9 |
| 20260504011542 | 12 | 0 | 0.0 | 1.6 | 0.00 | 0.08 | 0.00 | 93 | 1012.0 |
| 20260504010042 | 13 | 42 | 0.0 | 1.6 | 0.00 | 0.08 | 0.00 | 92 | 1012.0 |
| 20260504004538 | 13 | 0 | 0.0 | 3.2 | 0.00 | 0.08 | 0.00 | 92 | 1012.1 |
| 20260504003035 | 13 | 63 | 1.6 | 3.2 | 0.00 | 0.08 | 0.00 | 92 | 1012.1 |
| 20260504001538 | 13 | 19 | 1.6 | 4.8 | 0.00 | 0.08 | 0.00 | 92 | 1012.1 |
| 20260504000035 | 13 | 62 | 1.6 | 6.4 | 0.00 | 0.08 | 0.00 | 92 | 1012.3 |
| 20260503234540 | 13 | 47 | 1.6 | 8.0 | 0.00 | 0.13 | 0.00 | 91 | 1012.3 |
| 20260503233037 | 14 | 53 | 0.0 | 3.2 | 0.00 | 0.13 | 0.00 | 91 | 1012.5 |
| 20260503231536 | 14 | 37 | 0.0 | 1.6 | 0.00 | 0.13 | 0.00 | 90 | 1012.5 |
| 20260503230041 | 15 | 38 | 1.6 | 9.7 | 0.00 | 0.13 | 0.00 | 89 | 1012.4 |
| 20260503224533 | 15 | 325 | 6.4 | 11.3 | 0.00 | 0.15 | 0.00 | 90 | 1012.5 |
| 20260503223041 | 15 | 309 | 4.8 | 11.3 | 0.00 | 0.15 | 0.00 | 90 | 1012.7 |
| 20260503221541 | 15 | 315 | 6.4 | 14.5 | 0.00 | 0.15 | 0.00 | 89 | 1012.5 |
| 20260503220039 | 15 | 336 | 8.0 | 14.5 | 0.00 | 0.15 | 0.00 | 88 | 1012.6 |
| 20260503214540 | 15 | 329 | 4.8 | 11.3 | 0.00 | 0.20 | 0.15 | 89 | 1012.4 |
| 20260503213042 | 15 | 329 | 6.4 | 11.3 | 0.00 | 0.20 | 0.15 | 88 | 1012.5 |
| 20260503211541 | 15 | 321 | 8.0 | 11.3 | 0.00 | 0.20 | 0.15 | 89 | 1012.6 |
| 20260503210039 | 15 | 315 | 8.0 | 12.9 | 0.00 | 0.20 | 0.15 | 88 | 1012.8 |
| 20260503204541 | 15 | 310 | 6.4 | 14.5 | 0.00 | 0.20 | 0.15 | 88 | 1012.7 |
| 20260503203041 | 15 | 323 | 8.0 | 12.9 | 0.00 | 0.20 | 0.15 | 88 | 1012.5 |